Location: Kosice
(0.0000°N, 21.2500°E)
Time: 06:06:07
(UTC+01:00)

Okean-O - Pass Details

Date: 24 January 2021
Orbit: 638 x 641 km, 98.2° (Epoch: 04 March)

Event Time Altitude Azimuth Distance (km) Brightness Sun altitude
Rises 18:50:19 0° 171° (S) 2,941 6.2 -14.9°
Reaches altitude 10° 18:52:32 10° 173° (S) 2,031 5.4 -15.4°
Maximum altitude 18:56:57 76° 258° (WSW) 662 2.8 -16.5°
Drops below altitude 10° 19:01:21 10° 344° (NNW) 2,023 5.2 -17.5°
Sets 19:03:33 0° 345° (NNW) 2,929 6.0 -18.0°
